When you browse on this site, cookies collect data to enhance your experience and personalize the content and advertising you see.
Visit our Privacy Policy to learn more. By continuing to use the site, you agree to this use of cookies and data.

Stündliche Wetter Thimbu

Heute, 7 Juli, Dienstag

Zeit Temperatur Niederschläge Wind Luftdruck Luftfeuchtigkeit
00:00 +12°C° 0 mm 0 m/S 525 mmHg 97%
01:00 +12°C° 0 mm 0 m/S 525 mmHg 96%
02:00 +12°C° 0 mm 0 m/S 525 mmHg 95%
03:00 +12°C° 0 mm 0 m/S 525 mmHg 95%
04:00 +12°C° 0 mm 0 m/S 525 mmHg 93%
05:00 +12°C° 0 mm 0 m/S 525 mmHg 92%
06:00 +13°C° 0 mm 0 m/S 526 mmHg 94%
07:00 +14°C° 0 mm 0 m/S 527 mmHg 90%
08:00 +16°C° 0 mm 1 m/S 527 mmHg 86%
09:00 +18°C° 0 mm 1 m/S 528 mmHg 82%
10:00 +19°C° 0.2 mm 1 m/S 529 mmHg 75%
11:00 +20°C° 0.2 mm 2 m/S 529 mmHg 69%
12:00 +23°C° 0 mm 2 m/S 530 mmHg 62%
13:00 +21°C° 0.9 mm 2 m/S 529 mmHg 69%
14:00 +20°C° 0.9 mm 2 m/S 528 mmHg 76%
15:00 +19°C° 0.9 mm 2 m/S 527 mmHg 84%
16:00 +18°C° 0.9 mm 2 m/S 527 mmHg 87%
17:00 +18°C° 0.9 mm 1 m/S 526 mmHg 90%
18:00 +16°C° 0 mm 1 m/S 526 mmHg 92%
19:00 +15°C° 0.2 mm 1 m/S 526 mmHg 93%
20:00 +15°C° 0.2 mm 1 m/S 526 mmHg 95%
21:00 +13°C° 0.2 mm 0 m/S 527 mmHg 97%
22:00 +13°C° 0 mm 0 m/S 526 mmHg 97%
23:00 +12°C° 0 mm 0 m/S 526 mmHg 97%

Morgen, 8 Juli, Mittwoch

Zeit Temperatur Niederschläge Wind Luftdruck Luftfeuchtigkeit
00:00 +12°C° 0 mm 0 m/S 526 mmHg 97%
01:00 +12°C° 0 mm 0 m/S 526 mmHg 97%
02:00 +12°C° 0 mm 0 m/S 526 mmHg 96%
03:00 +11°C° 0 mm 0 m/S 525 mmHg 96%
04:00 +12°C° 0 mm 0 m/S 525 mmHg 95%
05:00 +12°C° 0 mm 0 m/S 526 mmHg 94%
06:00 +12°C° 0 mm 0 m/S 526 mmHg 92%
07:00 +14°C° 0 mm 0 m/S 527 mmHg 86%
08:00 +18°C° 0 mm 1 m/S 528 mmHg 80%
09:00 +19°C° 0 mm 1 m/S 529 mmHg 74%
10:00 +19°C° 0.1 mm 2 m/S 529 mmHg 72%
11:00 +20°C° 0.1 mm 2 m/S 529 mmHg 69%
12:00 +21°C° 0.1 mm 2 m/S 529 mmHg 66%
13:00 +21°C° 0.5 mm 2 m/S 528 mmHg 70%
14:00 +20°C° 0.5 mm 2 m/S 527 mmHg 74%
15:00 +20°C° 0.5 mm 2 m/S 526 mmHg 78%
16:00 +19°C° 0.5 mm 2 m/S 526 mmHg 82%
17:00 +18°C° 0.5 mm 2 m/S 525 mmHg 87%
18:00 +17°C° 0.5 mm 2 m/S 524 mmHg 91%
19:00 +16°C° 0.3 mm 1 m/S 524 mmHg 94%
20:00 +15°C° 0.3 mm 1 m/S 524 mmHg 96%
21:00 +13°C° 0.3 mm 0 m/S 524 mmHg 98%
22:00 +13°C° 0.1 mm 0 m/S 524 mmHg 97%
23:00 +13°C° 0.1 mm 0 m/S 524 mmHg 97%

übermorgen, 9 Juli, Donnerstag

Zeit Temperatur Niederschläge Wind Luftdruck Luftfeuchtigkeit
00:00 +13°C° 0.1 mm 0 m/S 524 mmHg 96%
01:00 +12°C° 0 mm 0 m/S 524 mmHg 96%
02:00 +12°C° 0 mm 0 m/S 523 mmHg 95%
03:00 +12°C° 0 mm 0 m/S 523 mmHg 95%
04:00 +12°C° 0 mm 0 m/S 523 mmHg 94%
05:00 +12°C° 0 mm 0 m/S 523 mmHg 94%
06:00 +12°C° 0 mm 0 m/S 523 mmHg 93%
07:00 +14°C° 0 mm 0 m/S 524 mmHg 88%
08:00 +16°C° 0 mm 1 m/S 525 mmHg 83%
09:00 +19°C° 0 mm 1 m/S 526 mmHg 77%
10:00 +19°C° 0.5 mm 1 m/S 526 mmHg 78%
11:00 +19°C° 0.5 mm 2 m/S 525 mmHg 80%
12:00 +19°C° 0.5 mm 2 m/S 525 mmHg 81%
13:00 +18°C° 1 mm 2 m/S 524 mmHg 84%
14:00 +18°C° 1 mm 2 m/S 524 mmHg 87%
15:00 +17°C° 1 mm 2 m/S 523 mmHg 90%
16:00 +17°C° 0.8 mm 2 m/S 523 mmHg 92%
17:00 +16°C° 0.8 mm 1 m/S 522 mmHg 95%
18:00 +15°C° 0.8 mm 1 m/S 522 mmHg 98%
19:00 +15°C° 0.5 mm 1 m/S 522 mmHg 98%
20:00 +14°C° 0.5 mm 1 m/S 522 mmHg 98%
21:00 +13°C° 0.5 mm 0 m/S 523 mmHg 98%
22:00 +13°C° 0.6 mm 0 m/S 523 mmHg 98%
23:00 +13°C° 0.6 mm 0 m/S 523 mmHg 98%

10 Juli, Freitag

Zeit Temperatur Niederschläge Wind Luftdruck Luftfeuchtigkeit
00:00 +13°C° 0.6 mm 0 m/S 523 mmHg 97%
01:00 +13°C° 1.4 mm 0 m/S 523 mmHg 97%
02:00 +13°C° 1.4 mm 0 m/S 522 mmHg 98%
03:00 +13°C° 1.4 mm 0 m/S 522 mmHg 98%
04:00 +13°C° 1.1 mm 0 m/S 522 mmHg 98%
05:00 +13°C° 1.1 mm 0 m/S 522 mmHg 98%
06:00 +13°C° 1.1 mm 0 m/S 522 mmHg 98%
07:00 +13°C° 2.9 mm 0 m/S 522 mmHg 98%
08:00 +14°C° 2.9 mm 1 m/S 522 mmHg 98%
09:00 +14°C° 2.9 mm 1 m/S 522 mmHg 98%
10:00 +14°C° 5.9 mm 1 m/S 523 mmHg 96%
11:00 +13°C° 5.9 mm 0 m/S 523 mmHg 95%
12:00 +13°C° 5.9 mm 0 m/S 523 mmHg 93%
13:00 +13°C° 0.7 mm 0 m/S 523 mmHg 94%
14:00 +14°C° 0.7 mm 1 m/S 523 mmHg 94%
15:00 +15°C° 0.7 mm 1 m/S 522 mmHg 94%
16:00 +14°C° 0.2 mm 1 m/S 522 mmHg 95%
17:00 +13°C° 0.2 mm 0 m/S 522 mmHg 96%
18:00 +12°C° 0.2 mm 0 m/S 522 mmHg 97%
19:00 +12°C° 0.1 mm 0 m/S 522 mmHg 97%
20:00 +12°C° 0.1 mm 0 m/S 522 mmHg 98%
21:00 +12°C° 0.1 mm 0 m/S 522 mmHg 98%
22:00 +12°C° 0.4 mm 0 m/S 522 mmHg 98%
23:00 +12°C° 0.4 mm 0 m/S 522 mmHg 97%

11 Juli, Samstag

Zeit Temperatur Niederschläge Wind Luftdruck Luftfeuchtigkeit
00:00 +12°C° 0.4 mm 0 m/S 522 mmHg 97%
01:00 +12°C° 0.2 mm 0 m/S 522 mmHg 97%
02:00 +13°C° 0.2 mm 1 m/S 521 mmHg 96%
03:00 +13°C° 0.2 mm 1 m/S 521 mmHg 96%
04:00 +13°C° 0.6 mm 1 m/S 521 mmHg 96%
05:00 +12°C° 0.6 mm 0 m/S 521 mmHg 96%
06:00 +12°C° 0.6 mm 0 m/S 521 mmHg 96%
07:00 +12°C° 1.1 mm 0 m/S 522 mmHg 95%
08:00 +12°C° 1.1 mm 0 m/S 522 mmHg 95%
09:00 +12°C° 1.1 mm 0 m/S 522 mmHg 95%
10:00 +14°C° 0.7 mm 1 m/S 522 mmHg 94%
11:00 +14°C° 0.7 mm 1 m/S 522 mmHg 94%
12:00 +15°C° 0.7 mm 1 m/S 523 mmHg 93%
13:00 +14°C° 3.2 mm 1 m/S 522 mmHg 95%
14:00 +14°C° 3.2 mm 1 m/S 522 mmHg 96%
15:00 +14°C° 3.2 mm 1 m/S 521 mmHg 98%
16:00 +13°C° 2.1 mm 1 m/S 521 mmHg 98%
17:00 +12°C° 2.1 mm 0 m/S 521 mmHg 98%
18:00 +12°C° 2.1 mm 0 m/S 522 mmHg 98%
19:00 +12°C° 0.4 mm 0 m/S 522 mmHg 98%
20:00 +12°C° 0.4 mm 0 m/S 522 mmHg 98%
21:00 +12°C° 0.4 mm 0 m/S 523 mmHg 98%
22:00 +11°C° 1 mm 0 m/S 523 mmHg 98%
23:00 +11°C° 1 mm 0 m/S 523 mmHg 97%

12 Juli, Sonntag

Zeit Temperatur Niederschläge Wind Luftdruck Luftfeuchtigkeit
00:00 +11°C° 1 mm 0 m/S 523 mmHg 97%
01:00 +11°C° 1.2 mm 0 m/S 522 mmHg 97%
02:00 +11°C° 1.2 mm 0 m/S 522 mmHg 97%
03:00 +11°C° 1.2 mm 0 m/S 522 mmHg 97%
04:00 +11°C° 0.8 mm 0 m/S 522 mmHg 97%
05:00 +11°C° 0.8 mm 0 m/S 522 mmHg 97%
06:00 +11°C° 0.8 mm 0 m/S 523 mmHg 96%
07:00 +12°C° 0.5 mm 0 m/S 523 mmHg 96%
08:00 +12°C° 0.5 mm 0 m/S 523 mmHg 96%
09:00 +12°C° 0.5 mm 0 m/S 524 mmHg 96%
10:00 +13°C° 0.2 mm 0 m/S 524 mmHg 95%
11:00 +13°C° 0.2 mm 0 m/S 524 mmHg 93%
12:00 +14°C° 0.2 mm 0 m/S 524 mmHg 92%
13:00 +15°C° 0.3 mm 1 m/S 524 mmHg 92%
14:00 +15°C° 0.3 mm 1 m/S 523 mmHg 92%
15:00 +15°C° 0.3 mm 1 m/S 523 mmHg 92%
16:00 +14°C° 0.2 mm 1 m/S 523 mmHg 94%
17:00 +14°C° 0.2 mm 1 m/S 523 mmHg 95%
18:00 +13°C° 0.2 mm 0 m/S 523 mmHg 96%
19:00 +12°C° 0.1 mm 0 m/S 523 mmHg 97%
20:00 +12°C° 0.1 mm 0 m/S 523 mmHg 98%
21:00 +12°C° 0.1 mm 0 m/S 523 mmHg 98%
22:00 +12°C° 0.1 mm 0 m/S 523 mmHg 98%
23:00 +12°C° 0.1 mm 0 m/S 523 mmHg 98%
Mehr zeigen